Wind_Speed
37 35 34 32 30 30 30 28 25 22 21 18 18 16 15 12 9 10 9 10 16 27 37 40 40 39 35 34 32 34 34 34 37 38 41 42 44 42 41 43 38 33 31 29 22
41 40 38 38 37 36 35 33 30 28 26 25 24 22 21 20 17 14 13 14 12 13 16 23 30 36 39 41 39 38 40 41 41 42 42 43 39 38 37 36 30 27 26 21 14
45 45 44 43 43 42 41 39 37 34 31 30 29 29 26 25 25 23 19 18 17 15 14 14 16 19 22 24 24 24 25 24 24 27 24 19 25 31 26 31 26 23 19 14 12
49 50 49 49 49 47 46 44 42 40 36 35 34 33 33 31 29 30 28 25 23 21 19 17 18 19 20 18 18 19 20 21 20 24 26 18 22 22 23 24 22 23 19 13 17
53 54 54 53 53 52 50 49 47 46 42 39 38 36 36 38 34 33 34 32 31 27 24 22 23 21 21 22 21 20 18 23 19 20 23 22 23 17 19 21 18 17 20 20 19
57 57 57 57 57 56 54 52 50 48 46 44 40 39 40 43 39 38 40 38 37 35 33 29 26 23 23 27 25 23 19 19 16 19 19 17 14 8 14 15 15 16 17 22 23
59 60 60 60 60 59 58 56 55 54 51 49 46 44 45 43 43 43 44 44 43 41 40 36 31 29 27 28 24 23 25 22 17 20 17 16 12 9 3 12 14 13 16 20 19
61 62 62 62 63 62 62 62 60 59 58 56 51 50 52 45 47 48 44 48 48 46 45 42 38 35 31 30 27 28 27 29 25 22 18 16 10 17 25 16 14 13 13 18 18
66 67 68 68 69 68 68 67 66 63 63 60 58 55 56 54 52 51 49 50 50 50 48 46 43 38 35 33 30 31 31 31 29 27 24 20 13 17 19 20 20 18 17 15 22
72 73 74 74 74 74 73 72 71 69 67 65 61 60 58 60 57 57 56 53 54 52 51 49 47 44 39 36 39 35 33 31 31 29 27 22 17 20 23 26 18 14 16 20 19
75 78 80 81 82 82 83 81 78 75 75 73 69 68 67 65 61 60 62 58 56 55 56 54 50 49 47 44 41 36 34 32 32 31 29 23 21 22 22 29 28 18 18 21 18
81 82 82 82 83 85 86 87 87 85 82 83 79 75 78 71 67 68 66 64 62 62 60 55 53 55 51 47 44 39 37 37 36 34 33 27 28 25 22 16 24 20 12 13 23
89 90 91 92 92 92 90 88 87 86 86 90 88 86 87 76 75 75 73 72 67 67 62 60 65 57 54 50 46 42 41 42 41 41 39 35 31 28 28 28 23 31 14 19 20
93 96 97 100 100 99 98 96 93 91 97 92 91 89 87 85 78 83 81 78 74 70 71 67 68 61 59 52 49 45 49 48 46 44 43 41 33 31 33 26 31 27 22 22 17
88 93 98 99 103 105 105 104 101 97 106 100 92 93 90 85 87 89 87 86 79 77 78 66 71 66 60 56 53 55 51 50 48 44 47 41 36 35 32 35 36 31 23 22 20
94 98 100 96 97 97 96 96 96 97 106 108 103 97 98 93 95 96 90 87 87 85 77 74 76 71 62 60 55 62 51 49 46 45 44 41 41 40 39 41 40 35 28 27 26
97 101 104 106 106 105 103 101 98 94 96 100 93 96 99 105 105 105 98 93 86 80 76 78 74 68 64 62 60 58 50 48 44 40 38 48 44 49 46 47 42 39 35 31 27
96 98 99 100 98 98 100 100 99 95 94 100 94 96 95 100 102 105 103 96 89 87 85 80 78 72 69 61 62 62 61 53 50 51 52 56 48 50 51 48 41 41 40 36 31
86 84 83 84 83 83 84 89 94 89 91 98 94 97 98 102 93 99 96 97 99 97 94 88 80 84 82 75 72 68 54 59 58 58 56 49 48 55 52 45 42 38 37 35 33
64 62 62 65 67 68 71 74 78 77 82 92 90 91 98 105 95 94 93 97 100 104 101 88 91 87 83 83 75 67 69 64 59 51 50 50 52 53 47 41 40 38 40 39 34
54 52 51 53 55 57 60 61 63 66 71 77 80 88 91 101 95 97 95 95 100 101 102 97 89 85 90 78 69 70 66 62 63 58 57 55 54 51 47 44 39 39 42 42 38
50 46 43 42 46 48 50 53 54 59 60 61 67 79 85 93 91 97 99 98 96 100 96 100 89 95 83 72 71 73 68 67 61 59 59 58 52 47 43 42 40 39 44 46 44
45 43 36 34 34 37 42 43 43 46 53 56 56 63 73 84 91 94 97 100 97 97 95 91 96 94 87 87 81 69 64 61 62 65 61 57 56 51 46 43 43 43 47 50 49
42 37 36 36 33 32 35 38 40 37 39 47 51 56 64 75 87 90 98 102 100 95 95 91 88 90 89 81 77 71 68 65 65 60 61 57 58 52 48 47 44 46 52 55 53
38 39 36 39 43 39 36 33 34 32 31 36 43 49 54 66 75 86 100 103 102 99 96 90 84 82 87 85 80 79 79 75 65 64 64 63 60 52 50 44 45 48 55 57 56
39 36 42 41 39 37 33 30 30 29 28 28 35 44 47 59 67 78 92 102 103 101 96 87 90 84 84 87 88 88 80 74 69 68 67 66 62 53 53 47 46 50 58 62 59
38 37 36 36 38 37 34 28 27 25 24 24 28 33 42 49 58 66 82 100 104 101 97 88 89 84 86 92 92 84 77 75 76 73 68 63 60 60 56 51 50 48 57 66 62
Wind_Direction
255 257 258 258 259 259 258 257 251 249 252 254 255 251 247 237 213 199 192 193 215 226 230 233 235 237 238 235 242 244 248 248 245 257 257 265 272 275 275 277 280 283 286 290 300
255 256 258 258 259 260 260 259 256 252 248 252 252 250 248 243 232 226 212 212 204 202 213 224 233 239 242 245 248 249 250 253 254 257 262 266 270 269 271 271 275 272 279 287 301
256 257 257 258 259 260 261 261 259 255 252 251 252 251 249 245 243 231 230 227 218 218 219 219 221 227 233 236 236 236 238 238 245 240 252 254 261 260 259 265 268 273 272 284 301
258 258 259 259 259 260 261 262 263 261 256 253 252 252 249 246 244 244 231 233 230 223 222 231 233 232 233 232 233 235 237 229 211 231 237 272 269 262 248 269 270 273 277 280 282
260 260 260 260 260 260 261 261 260 261 261 257 255 253 251 246 243 243 242 236 235 232 228 229 239 243 248 246 244 241 238 229 247 254 250 272 272 261 257 269 268 272 287 289 292
262 262 262 262 261 261 261 260 258 258 257 257 255 254 251 247 244 242 243 241 237 235 233 233 234 245 245 244 245 251 250 248 251 260 264 264 273 277 286 299 289 289 288 305 310
263 263 263 263 262 260 260 259 258 259 259 256 254 252 252 248 246 242 243 242 240 238 235 233 237 239 246 251 249 253 256 254 246 250 264 279 271 232 179 348 307 308 307 311 307
264 263 262 262 261 261 260 260 259 259 259 259 255 252 251 248 246 243 240 242 241 239 238 236 233 239 243 248 248 248 254 258 256 253 257 254 272 232 233 260 293 273 323 320 314
267 265 265 264 263 262 262 261 260 258 258 257 257 253 252 248 244 245 240 238 239 240 239 238 237 237 241 245 251 246 247 250 255 255 259 254 212 221 217 226 254 281 310 322 327
267 266 265 264 263 263 262 261 260 259 258 257 254 253 250 247 243 243 242 237 238 238 239 239 236 237 241 242 241 245 244 246 253 254 258 257 235 234 234 239 249 250 286 296 327
268 266 265 264 263 262 262 261 259 258 260 257 254 252 249 248 244 242 242 240 236 237 237 237 238 238 237 241 246 249 249 246 248 250 252 247 238 228 235 234 233 260 263 282 301
268 266 266 265 264 262 261 260 258 257 257 256 254 251 249 247 247 245 243 240 237 235 235 235 240 238 237 240 245 246 244 240 243 245 245 244 247 232 238 215 202 236 233 293 283
269 267 266 265 264 262 261 260 258 257 255 255 252 251 252 248 248 248 245 243 240 239 236 236 241 237 239 241 244 243 239 236 236 235 238 235 240 242 234 235 216 226 263 256 261
270 268 266 266 264 262 261 259 258 257 256 253 254 253 252 252 250 247 246 243 242 239 237 235 240 237 237 240 240 240 237 236 237 236 234 237 236 248 243 240 242 242 242 256 262
270 269 268 266 267 265 264 262 259 256 256 254 251 252 252 251 249 248 246 246 243 240 239 236 238 238 237 236 235 235 234 235 236 235 236 240 245 240 244 234 243 239 236 248 252
272 272 272 272 271 271 269 266 263 260 257 256 251 248 249 248 248 244 243 243 240 240 241 240 239 238 236 234 231 234 235 235 236 235 236 241 240 240 236 240 242 242 232 233 236
279 278 277 276 275 274 272 270 267 262 258 257 256 250 246 243 242 244 242 241 240 241 241 239 242 238 235 232 232 236 235 234 230 231 234 237 237 242 240 237 229 234 233 230 232
284 282 280 279 277 274 272 270 267 263 260 259 253 249 247 243 240 240 239 240 240 239 236 235 236 237 234 230 227 226 226 226 227 228 226 229 229 238 239 243 239 229 227 225 229
288 284 282 280 277 274 270 266 265 263 258 254 250 247 244 244 239 238 238 235 235 235 231 229 229 230 227 221 222 225 224 224 224 226 232 237 232 238 245 243 246 238 230 222 227
293 290 286 281 278 275 271 267 264 259 254 251 249 244 240 240 236 236 232 231 231 232 232 232 225 228 227 224 222 223 222 223 225 230 232 233 231 234 238 242 243 239 227 219 224
302 296 291 288 283 280 277 274 269 262 254 250 245 241 237 236 231 232 231 228 229 229 230 230 229 231 229 230 227 228 227 225 226 225 226 229 231 235 236 237 238 240 225 219 217
309 307 304 296 288 286 280 275 271 267 261 251 243 239 235 233 230 228 227 227 225 227 225 226 227 230 233 230 228 227 223 225 223 226 227 228 232 234 234 230 236 230 226 216 216
324 319 317 314 310 301 289 281 273 264 262 257 246 238 234 229 228 224 223 224 222 224 224 223 223 225 226 228 225 227 225 225 224 227 226 226 227 225 225 229 233 226 224 215 217
332 337 335 328 321 313 302 295 287 275 261 256 250 238 231 227 224 218 220 221 220 218 220 221 220 222 227 228 229 229 226 226 224 227 230 229 227 224 225 226 225 223 217 217 216
343 341 344 336 331 324 314 305 296 284 267 254 247 240 230 227 225 217 214 216 216 216 216 216 217 218 221 225 228 226 220 220 225 225 226 227 226 224 225 222 226 221 213 218 217
351 350 345 344 338 334 328 315 305 294 279 255 245 238 229 224 221 218 213 212 216 214 212 211 214 212 215 218 223 224 225 222 218 222 223 225 227 222 225 219 222 220 213 214 217
355 352 350 350 354 351 345 337 327 311 292 267 245 236 229 223 220 216 211 212 213 212 210 207 211 209 211 215 219 221 222 223 222 221 222 225 230 223 226 222 221 217 217 213 217
Height
10953 10954 10954 10956 10957 10958 10959 10961 10963 10966 10967 10968 10969 10970 10972 10973 10974 10974 10975 10977 10977 10978 10980 10982 10983 10985 10988 10992 10995 10999 11000 11000 10997 10995 10998 10999 10999 10999 10999 10997 10999 10998 10997 10998 10998
10946 10947 10947 10949 10950 10952 10953 10955 10957 10960 10962 10963 10964 10966 10967 10969 10971 10972 10972 10972 10974 10976 10976 10977 10978 10980 10982 10986 10988 10992 10993 10994 10995 10995 10996 10993 10994 10995 10996 10990 10994 10994 10992 10994 10994
10938 10939 10940 10940 10942 10943 10945 10947 10949 10952 10955 10958 10959 10960 10962 10963 10965 10967 10969 10970 10971 10972 10973 10974 10975 10976 10977 10980 10983 10984 10985 10987 10987 10989 10989 10988 10988 10988 10989 10984 10988 10988 10988 10989 10990
10930 10930 10930 10931 10932 10934 10935 10937 10940 10942 10946 10949 10951 10954 10955 10956 10959 10960 10963 10965 10966 10968 10969 10970 10971 10972 10973 10976 10979 10980 10980 10981 10979 10980 10981 10982 10982 10982 10981 10982 10983 10984 10984 10985 10987
10919 10919 10920 10921 10922 10924 10926 10927 10929 10931 10935 10940 10942 10945 10947 10948 10951 10953 10955 10959 10960 10963 10964 10966 10966 10968 10970 10972 10974 10975 10977 10978 10978 10975 10977 10977 10977 10980 10980 10979 10979 10980 10981 10982 10984
10909 10908 10909 10909 10910 10912 10914 10917 10919 10920 10924 10927 10931 10934 10936 10937 10942 10944 10945 10949 10952 10955 10958 10960 10962 10963 10965 10965 10968 10970 10973 10975 10976 10973 10974 10973 10975 10980 10978 10978 10979 10978 10979 10979 10981
10896 10895 10895 10896 10897 10899 10901 10903 10907 10908 10912 10915 10920 10922 10922 10927 10930 10934 10935 10938 10941 10946 10949 10954 10956 10956 10959 10959 10963 10966 10968 10970 10974 10970 10969 10968 10972 10977 10976 10976 10979 10975 10975 10976 10976
10881 10881 10881 10881 10882 10884 10886 10889 10893 10896 10898 10902 10907 10910 10906 10917 10917 10919 10926 10927 10931 10935 10940 10944 10948 10950 10952 10954 10958 10961 10963 10963 10967 10967 10966 10966 10970 10971 10971 10974 10973 10974 10973 10973 10973
10866 10865 10865 10865 10866 10867 10869 10871 10875 10878 10882 10887 10892 10896 10894 10899 10904 10907 10912 10915 10920 10923 10929 10935 10939 10942 10946 10948 10951 10954 10955 10957 10959 10961 10962 10966 10970 10969 10966 10967 10970 10973 10971 10971 10970
10848 10847 10846 10846 10846 10848 10850 10853 10856 10860 10864 10869 10876 10877 10880 10881 10888 10891 10895 10903 10907 10912 10917 10922 10929 10934 10936 10940 10939 10945 10951 10953 10953 10955 10957 10961 10966 10965 10964 10966 10968 10967 10970 10969 10969
10826 10824 10824 10823 10825 10827 10828 10832 10836 10842 10843 10846 10855 10856 10857 10864 10872 10877 10879 10888 10894 10900 10903 10909 10918 10919 10925 10929 10934 10940 10944 10947 10947 10948 10949 10953 10956 10958 10958 10962 10965 10965 10967 10966 10969
10803 10801 10800 10799 10800 10801 10804 10807 10811 10818 10825 10820 10828 10835 10833 10847 10858 10858 10865 10871 10877 10881 10888 10900 10902 10904 10914 10920 10925 10931 10935 10937 10938 10941 10942 10949 10949 10953 10954 10956 10958 10963 10960 10962 10970
10776 10775 10773 10773 10772 10773 10777 10781 10785 10793 10793 10789 10801 10807 10808 10837 10837 10838 10846 10850 10863 10864 10878 10883 10875 10895 10902 10909 10914 10920 10924 10924 10928 10930 10933 10939 10944 10944 10947 10951 10955 10957 10957 10963 10965
10748 10744 10744 10738 10741 10743 10745 10751 10758 10766 10753 10765 10775 10788 10797 10812 10825 10809 10820 10828 10840 10852 10854 10864 10864 10881 10887 10896 10899 10908 10906 10912 10916 10922 10927 10931 10940 10941 10943 10946 10951 10950 10955 10959 10959
10719 10711 10707 10710 10707 10709 10711 10716 10723 10735 10715 10737 10759 10760 10769 10783 10785 10788 10797 10806 10822 10826 10831 10854 10848 10861 10874 10877 10887 10886 10894 10901 10905 10914 10917 10926 10932 10936 10938 10942 10942 10946 10950 10952 10957
10693 10684 10676 10676 10676 10675 10677 10680 10686 10695 10682 10696 10718 10737 10737 10754 10753 10751 10766 10781 10790 10801 10819 10829 10830 10847 10861 10862 10873 10866 10885 10892 10899 10906 10912 10917 10921 10926 10931 10930 10934 10942 10945 10947 10955
10661 10653 10648 10641 10639 10638 10638 10642 10646 10653 10654 10655 10686 10696 10701 10704 10708 10715 10738 10756 10773 10790 10808 10809 10819 10832 10840 10848 10857 10863 10876 10882 10891 10900 10907 10901 10910 10907 10914 10919 10930 10935 10938 10945 10947
10628 10618 10610 10601 10600 10598 10596 10596 10599 10606 10620 10623 10644 10650 10662 10667 10677 10688 10709 10738 10756 10769 10772 10790 10798 10815 10823 10836 10840 10845 10855 10868 10878 10883 10882 10886 10902 10897 10899 10907 10921 10932 10939 10941 10942
10592 10584 10575 10566 10562 10558 10558 10557 10554 10568 10581 10579 10593 10611 10626 10624 10650 10661 10688 10712 10722 10728 10740 10751 10776 10773 10785 10802 10813 10829 10851 10852 10857 10865 10873 10884 10891 10886 10894 10906 10911 10919 10926 10932 10936
10562 10556 10547 10536 10531 10528 10523 10521 10520 10532 10536 10537 10557 10570 10583 10588 10612 10630 10654 10670 10678 10696 10705 10752 10740 10754 10770 10779 10800 10821 10824 10837 10850 10863 10870 10873 10877 10878 10888 10898 10903 10910 10916 10924 10929
10539 10531 10528 10518 10510 10504 10499 10496 10493 10495 10500 10505 10518 10531 10547 10550 10577 10599 10618 10636 10652 10669 10693 10715 10743 10755 10747 10778 10803 10806 10821 10832 10838 10847 10854 10860 10866 10872 10881 10887 10894 10900 10909 10914 10924
10520 10515 10507 10500 10491 10487 10481 10475 10472 10468 10470 10478 10488 10493 10508 10526 10541 10566 10587 10603 10627 10644 10670 10689 10727 10723 10754 10779 10786 10787 10802 10812 10827 10832 10840 10847 10858 10867 10875 10880 10885 10891 10898 10908 10914
10509 10497 10493 10486 10478 10467 10459 10454 10452 10451 10447 10450 10460 10469 10476 10488 10510 10536 10558 10579 10601 10623 10649 10671 10691 10714 10735 10741 10755 10780 10795 10805 10811 10813 10826 10837 10842 10853 10862 10868 10874 10881 10889 10897 10904
10498 10491 10479 10470 10464 10457 10447 10439 10432 10431 10431 10430 10434 10442 10451 10462 10478 10507 10530 10548 10576 10600 10623 10648 10674 10703 10719 10741 10757 10771 10781 10790 10794 10807 10815 10826 10829 10843 10852 10858 10865 10870 10878 10883 10893
10490 10480 10474 10464 10451 10442 10435 10428 10420 10416 10414 10414 10415 10423 10434 10444 10459 10481 10497 10522 10548 10575 10596 10632 10662 10686 10703 10719 10737 10745 10753 10765 10786 10794 10801 10805 10817 10834 10840 10848 10854 10859 10868 10874 10882
10486 10477 10465 10456 10445 10435 10425 10416 10408 10403 10400 10400 10401 10406 10416 10425 10440 10458 10481 10504 10527 10554 10579 10615 10634 10660 10684 10700 10708 10718 10743 10762 10771 10778 10785 10790 10803 10825 10825 10838 10843 10848 10855 10863 10870
10482 10473 10464 10454 10441 10428 10416 10408 10399 10392 10389 10388 10389 10396 10403 10413 10428 10445 10463 10484 10505 10531 10563 10599 10616 10652 10668 10675 10686 10715 10740 10751 10757 10765 10776 10784 10794 10809 10814 10825 10832 10838 10843 10851 10860